Location: Fontevrault
(47.1823°N, 0.0493°E)
Time: 04:10:39
(UTC+00:00)

Uosat 12 SS-18 rocket - Pass Details

Date: 26 October 2021
Orbit: 579 x 1405 km, 64.6° (Epoch: 01 December)

Event Time Altitude Azimuth Distance (km) Brightness Sun altitude
Rises 21:37:48 0° 320° (NW) 3,751 8.8 -46.7°
Reaches altitude 10° 21:40:31 10° 330° (NNW) 2,922 8.0 -47.0°
Enters shadow 21:42:38 20° 342° (NNW) 2,369 7.3 -47.3°
